Weather History for Belgrade Nikola Tesla, Serbia

Change the Weather History Date:

Friday, July 20, 2012

  Actual Average Record
Temperature  
Mean Temperature 82 °F -  
Max Temperature 96 °F 79 °F 102 °F (2007)
Min Temperature 68 °F 60 °F 48 °F (1996)
Cooling Degree Days 17    
Growing Degree Days 32 (Base 50)    
Moisture  
Dew Point 52 °F    
Average Humidity 35    
Maximum Humidity 52    
Minimum Humidity 17    
Precipitation  
Precipitation 0.00 in - - ()
Sea Level Pressure  
Sea Level Pressure 29.89 in    
Wind  
Wind Speed 6 mph ()    
Max Wind Speed 10 mph    
Max Gust Speed -    
Visibility 12.0 miles    
Events      
Averages and records for this station are not official NWS values.
T = Trace of Precipitation, MM = Missing Value Source: Averaged Metar Reports

Daily Weather History Graph

Daily Weather History Graph

Search for Another Location

Airport:

Trip Planner

Search our weather history database for the weather conditions in past years. The results will help you decide how hot, cold, wet, or windy it might be!

Date:

Astronomy

Jul. 20, 2012 Rise Set
Actual Time 5:12 AM CEST 8:17 PM CEST
Civil Twilight 4:36 AM CEST 8:52 PM CEST
Nautical Twilight 3:51 AM CEST 9:37 PM CEST
Astronomical Twilight 2:56 AM CEST 10:32 PM CEST
Moon 6:35 AM CEST (7/20) 8:40 PM CEST (7/20)
Length of Visible Light 16h 15m
Length of Day
15h 05m
New Moon, 2% of the Moon is Illuminated
Jul 20
New Moon
Jul 26
First Quarter
Aug 2
Full
Aug 9
Last Quarter
Aug 17
New

Hourly Weather History & Observations

Time (CEST) Temp. Heat Index Dew Point Humidity Pressure Visibility Wind Dir Wind Speed Gust Speed Precip Events Conditions
12:00 AM 80.6 °F - 46.4 °F 30% 29.83 in - SSE 9.2 mph - N/A   Clear
12:30 AM 78.8 °F - 46.4 °F 32% 29.83 in - South 6.9 mph - N/A   Clear
1:00 AM 78.8 °F - 46.4 °F 32% 29.86 in - South 10.4 mph - N/A   Clear
1:30 AM 77.0 °F - 46.4 °F 34% 29.86 in - South 9.2 mph - N/A   Clear
2:00 AM 72 °F - 47 °F 30% 29.86 in 12 mi SW 6.7 mph - -  
2:00 AM 71.6 °F - 46.4 °F 41% 29.86 in - SW 8.1 mph - N/A   Clear
2:30 AM 71.6 °F - 46.4 °F 41% 29.86 in - West 6.9 mph - N/A   Clear
3:00 AM 71.6 °F - 46.4 °F 41% 29.86 in - WSW 8.1 mph - N/A   Clear
3:30 AM 69.8 °F - 46.4 °F 43% 29.86 in - WSW 5.8 mph - N/A   Clear
4:00 AM 69.8 °F - 48.2 °F 46% 29.89 in - WSW 10.4 mph - N/A   Clear
4:30 AM 69.8 °F - 48.2 °F 46% 29.89 in - WSW 8.1 mph - N/A   Clear
5:00 AM 69 °F - 49 °F 37% 29.89 in 12 mi WSW 4.5 mph - -  
5:00 AM 69.8 °F - 48.2 °F 46% 29.89 in - WSW 5.8 mph - N/A   Clear
5:30 AM 69.8 °F - 48.2 °F 46% 29.89 in - WSW 4.6 mph - N/A   Clear
6:30 AM 68.0 °F - 50.0 °F 52% 29.92 in - West 3.5 mph - N/A   Clear
7:00 AM 71.6 °F - 50.0 °F 46% 29.95 in - West 6.9 mph - N/A   Clear
7:30 AM 71.6 °F - 51.8 °F 50% 29.95 in - WSW 5.8 mph - N/A   Clear
8:00 AM 74 °F - 53 °F 36% 29.95 in 12 mi WSW 2.2 mph - -   Clear
8:00 AM 73.4 °F - 51.8 °F 47% 29.95 in - West 3.5 mph - N/A   Clear
8:30 AM 75.2 °F - 53.6 °F 47% 29.95 in - WNW 3.5 mph - N/A   Clear
9:00 AM 77.0 °F - 53.6 °F 44% 29.98 in - Variable 3.5 mph - N/A   Clear
9:30 AM 78.8 °F - 55.4 °F 44% 29.98 in - Variable 2.3 mph - N/A   Clear
10:00 AM 82.4 °F 81.7 °F 55.4 °F 39% 29.98 in - Variable 2.3 mph - N/A   Clear
10:30 AM 82.4 °F 81.7 °F 55.4 °F 39% 29.98 in - NNE 5.8 mph - N/A   Clear
11:30 AM 86.0 °F 84.2 °F 53.6 °F 33% 29.95 in - Variable 3.5 mph - N/A   Clear
12:00 PM 86.0 °F 84.2 °F 53.6 °F 33% 29.95 in - Variable 3.5 mph - N/A   Clear
12:30 PM 89.6 °F 87.7 °F 55.4 °F 31% 29.95 in - Variable 1.2 mph - N/A   Clear
1:00 PM 91.4 °F 89.4 °F 55.4 °F 29% 29.95 in - SSE 3.5 mph - N/A   Clear
1:30 PM 91.4 °F 89.1 °F 53.6 °F 28% 29.92 in - Variable 2.3 mph - N/A   Clear
2:00 PM 91 °F - 55 °F 20% 29.91 in 12 mi North 6.7 mph - -  
2:00 PM 91.4 °F 89.4 °F 55.4 °F 29% 29.92 in - NNE 8.1 mph - N/A   Clear
2:30 PM 93.2 °F 91.3 °F 55.4 °F 28% 29.92 in - NE 6.9 mph - N/A   Clear
3:00 PM 93.2 °F 90.8 °F 53.6 °F 26% 29.92 in - NE 8.1 mph - N/A   Clear
3:30 PM 93.2 °F 90.8 °F 53.6 °F 26% 29.89 in - Variable 5.8 mph - N/A   Clear
4:00 PM 95.0 °F 92.7 °F 53.6 °F 25% 29.89 in - NNE 8.1 mph - N/A   Clear
4:30 PM 93.2 °F 90.8 °F 53.6 °F 26% 29.89 in - NE 8.1 mph - N/A   Clear
5:00 PM 94 °F - 54 °F 17% 29.86 in 12 mi NE 8.9 mph - -  
5:00 PM 95.0 °F 92.7 °F 53.6 °F 25% 29.86 in - NE 9.2 mph - N/A   Clear
5:30 PM 93.2 °F 90.8 °F 53.6 °F 26% 29.86 in - ENE 9.2 mph - N/A   Clear
6:00 PM 93.2 °F 91.3 °F 55.4 °F 28% 29.86 in - ENE 8.1 mph - N/A   Clear
6:30 PM 93.2 °F 90.8 °F 53.6 °F 26% 29.86 in - NE 9.2 mph - N/A   Clear
7:00 PM 91.4 °F 89.4 °F 55.4 °F 29% 29.83 in - ENE 6.9 mph - N/A   Clear
7:30 PM 89.6 °F 87.7 °F 55.4 °F 31% 29.86 in - ENE 5.8 mph - N/A   Clear
8:00 PM 88 °F - 56 °F 24% 29.84 in 12 mi ENE 4.5 mph - -  
8:00 PM 87.8 °F 86.1 °F 55.4 °F 33% 29.86 in - ENE 4.6 mph - N/A   Clear
8:30 PM 86.0 °F 84.5 °F 55.4 °F 35% 29.83 in - ENE 5.8 mph - N/A   Clear
9:00 PM 84.2 °F 83.0 °F 55.4 °F 37% 29.86 in - ENE 6.9 mph - N/A   Clear
9:30 PM 82.4 °F 82.0 °F 57.2 °F 42% 29.86 in - East 5.8 mph - N/A   Clear
10:00 PM 82.4 °F 82.0 °F 57.2 °F 42% 29.86 in - East 6.9 mph - N/A   Clear
10:30 PM 80.6 °F 80.5 °F 55.4 °F 42% 29.86 in - ENE 5.8 mph - N/A   Clear
11:00 PM 80 °F - 55 °F 32% 29.84 in 12 mi East 6.7 mph - -  
11:00 PM 80.6 °F 80.5 °F 55.4 °F 42% 29.83 in - East 6.9 mph - N/A   Clear
11:30 PM 78.8 °F - 53.6 °F 42% 29.83 in - NE 5.8 mph - N/A   Clear